Weather History for KEYF - April, 2014

Change the Weather History Date:

Saturday, April 5, 2014

  Actual Average (KILM) Record (KILM)
Temperature  
Mean Temperature 70 °F 60 °F  
Max Temperature 78 °F 72 °F 88 °F (1978)
Min Temperature 61 °F 49 °F 33 °F (1987)
Degree Days  
Heating Degree Days 0 6  
Month to date heating degree days 33  
Since 1 July heating degree days 2285  
Cooling Degree Days 4 1  
Month to date cooling degree days 5  
Year to date cooling degree days 26  
Growing Degree Days 20 (Base 50)    
Moisture  
Dew Point 49 °F    
Average Humidity 49    
Maximum Humidity 75    
Minimum Humidity 25    
Precipitation  
Precipitation 0.00 in 0.10 in 2.86 in (1993)
Month to date precipitation 0.52  
Year to date precipitation 12.11  
Snow  
Snow 0.00 in 0.00 in - ()
Month to date snowfall 0.0  
Since 1 July snowfall 1.7  
Snow Depth -    
Sea Level Pressure  
Sea Level Pressure 29.92 in    
Wind  
Wind Speed 7 mph (WSW)    
Max Wind Speed 13 mph    
Max Gust Speed 21 mph    
Visibility 10 miles    
Events      
T = Trace of Precipitation, MM = Missing Value Source: NWS Daily Summary

Daily Weather History Graph

Daily Weather History Graph

Search for Another Location

Airport or City:

Trip Planner

Search our weather history database for the weather conditions in past years. The results will help you decide how hot, cold, wet, or windy it might be!

Date:

Astronomy

Apr. 05, 2014 Rise Set
Actual Time 6:55 AM EDT 7:38 PM EDT
Civil Twilight 6:30 AM EDT 8:04 PM EDT
Nautical Twilight 6:00 AM EDT 8:34 PM EDT
Astronomical Twilight 5:29 AM EDT 9:05 PM EDT
Moon 11:10 AM EDT (4/5) 12:38 AM EDT (4/5)
Length of Visible Light 13h 33m
Length of Day
12h 42m
Waxing Crescent, 34% of the Moon is Illuminated
Apr 5
Waxing Crescent
Apr 7
First Quarter
Apr 15
Full
Apr 22
Last Quarter
Apr 29
New

Hourly Weather History & Observations

Time (EDT) Temp. Dew Point Humidity Pressure Visibility Wind Dir Wind Speed Gust Speed Precip Events Conditions
12:15 AM 69.8 °F 58.3 °F 67% 29.86 in 10.0 mi South 8.1 mph - N/A   Clear
12:35 AM 69.8 °F 58.1 °F 66% 29.86 in 10.0 mi South 8.1 mph - N/A   Clear
12:55 AM 69.8 °F 57.9 °F 66% 29.86 in 10.0 mi SSW 10.4 mph - N/A   Clear
1:15 AM 70.0 °F 57.6 °F 65% 29.86 in 10.0 mi SSW 8.1 mph - N/A   Clear
1:35 AM 70.3 °F 57.4 °F 63% 29.86 in 10.0 mi SSW 8.1 mph - N/A   Scattered Clouds
1:55 AM 70.7 °F 57.2 °F 62% 29.87 in 10.0 mi SW 6.9 mph - N/A   Scattered Clouds
2:15 AM 70.7 °F 57.0 °F 62% 29.87 in 10.0 mi SW 9.2 mph - N/A   Clear
2:35 AM 70.7 °F 57.0 °F 62% 29.87 in 10.0 mi SW 6.9 mph - N/A   Clear
2:55 AM 70.7 °F 56.8 °F 61% 29.87 in 10.0 mi SW 8.1 mph - N/A   Mostly Cloudy
3:15 AM 69.8 °F 56.8 °F 63% 29.87 in 10.0 mi SSW 6.9 mph - N/A   Scattered Clouds
3:35 AM 69.6 °F 57.0 °F 64% 29.87 in 10.0 mi SSW 6.9 mph - N/A   Clear
3:55 AM 68.4 °F 56.5 °F 66% 29.87 in 10.0 mi SW 5.8 mph - N/A   Clear
4:15 AM 67.1 °F 56.7 °F 69% 29.87 in 10.0 mi SSW 5.8 mph - N/A   Clear
4:35 AM 66.9 °F 56.8 °F 70% 29.87 in 10.0 mi SW 5.8 mph - N/A   Clear
4:55 AM 67.1 °F 56.7 °F 69% 29.88 in 10.0 mi SW 6.9 mph - N/A   Clear
5:15 AM 66.4 °F 56.3 °F 70% 29.88 in 10.0 mi SW 4.6 mph - N/A   Clear
5:35 AM 66.2 °F 56.7 °F 71% 29.88 in 10.0 mi SW 3.5 mph - N/A   Scattered Clouds
5:55 AM 66.2 °F 56.8 °F 72% 29.89 in 10.0 mi WSW 3.5 mph - N/A   Overcast
6:15 AM 65.5 °F 56.5 °F 73% 29.89 in 10.0 mi WSW 4.6 mph - N/A   Mostly Cloudy
6:35 AM 64.9 °F 56.1 °F 73% 29.89 in 10.0 mi SW 4.6 mph - N/A   Mostly Cloudy
6:55 AM 64.8 °F 55.8 °F 73% 29.90 in 10.0 mi SW 4.6 mph - N/A   Mostly Cloudy
7:15 AM 63.9 °F 55.6 °F 74% 29.90 in 10.0 mi Calm Calm - N/A   Scattered Clouds
7:35 AM 63.9 °F 55.8 °F 75% 29.91 in 10.0 mi Calm Calm - N/A   Scattered Clouds
7:55 AM 64.4 °F 55.9 °F 74% 29.93 in 10.0 mi WSW 4.6 mph - N/A   Scattered Clouds
8:15 AM 66.2 °F 56.3 °F 70% 29.93 in 10.0 mi WSW 4.6 mph - N/A   Clear
8:35 AM 66.7 °F 55.4 °F 67% 29.92 in 10.0 mi West 6.9 mph - N/A   Clear
8:55 AM 68.0 °F 55.4 °F 64% 29.93 in 10.0 mi WSW 8.1 mph - N/A   Clear
9:15 AM 68.4 °F 54.1 °F 60% 29.93 in 10.0 mi West 10.4 mph - N/A   Clear
9:35 AM 68.9 °F 53.2 °F 57% 29.93 in 10.0 mi West 8.1 mph 16.1 mph N/A   Clear
9:55 AM 69.4 °F 52.9 °F 56% 29.94 in 10.0 mi West 9.2 mph 16.1 mph N/A   Clear
10:15 AM 69.8 °F 53.2 °F 56% 29.94 in 10.0 mi West 10.4 mph - N/A   Clear
10:35 AM 70.3 °F 52.9 °F 54% 29.94 in 10.0 mi WSW 6.9 mph - N/A   Clear
10:55 AM 71.4 °F 51.6 °F 50% 29.94 in 10.0 mi WNW 9.2 mph - N/A   Clear
11:15 AM 72.3 °F 51.3 °F 47% 29.95 in 10.0 mi West 10.4 mph - N/A   Clear
11:35 AM 72.9 °F 51.4 °F 47% 29.95 in 10.0 mi WNW 6.9 mph - N/A   Scattered Clouds
11:55 AM 73.4 °F 49.6 °F 43% 29.95 in 10.0 mi WNW 8.1 mph - N/A   Scattered Clouds
12:15 PM 74.1 °F 48.9 °F 41% 29.95 in 10.0 mi West 10.4 mph 17.3 mph N/A   Scattered Clouds
12:35 PM 75.2 °F 47.5 °F 37% 29.95 in 10.0 mi WSW 10.4 mph - N/A   Scattered Clouds
12:55 PM 75.4 °F 46.4 °F 36% 29.95 in 10.0 mi West 9.2 mph - N/A   Clear
1:15 PM 77.0 °F 46.9 °F 34% 29.95 in 10.0 mi West 11.5 mph 19.6 mph N/A   Clear
1:35 PM 76.6 °F 44.8 °F 32% 29.93 in 10.0 mi West 6.9 mph 10.4 mph N/A   Clear
1:55 PM 77.0 °F 41.9 °F 28% 29.93 in 10.0 mi West 9.2 mph 20.7 mph N/A   Clear
2:15 PM 77.4 °F 44.8 °F 31% 29.93 in 10.0 mi SW 10.4 mph 16.1 mph N/A   Clear
2:35 PM 77.7 °F 43.3 °F 29% 29.93 in 10.0 mi SW 12.7 mph 18.4 mph N/A   Clear
2:55 PM 77.7 °F 41.9 °F 28% 29.92 in 10.0 mi West 8.1 mph - N/A   Clear
3:15 PM 78.1 °F 39.9 °F 25% 29.92 in 10.0 mi West 11.5 mph 17.3 mph N/A   Clear
3:35 PM 78.4 °F 40.5 °F 26% 29.91 in 10.0 mi West 12.7 mph 18.4 mph N/A   Clear
3:55 PM 78.8 °F 39.9 °F 25% 29.91 in 10.0 mi West 12.7 mph 17.3 mph N/A   Clear
4:15 PM 78.4 °F 41.4 °F 27% 29.90 in 10.0 mi West 5.8 mph - N/A   Clear
4:35 PM 78.4 °F 42.3 °F 28% 29.91 in 10.0 mi West 11.5 mph 16.1 mph N/A   Clear
4:55 PM 78.4 °F 41.9 °F 27% 29.91 in 10.0 mi WNW 11.5 mph 16.1 mph N/A   Clear
5:15 PM 78.8 °F 42.3 °F 27% 29.91 in 10.0 mi WSW 4.6 mph - N/A   Clear
5:35 PM 78.4 °F 41.2 °F 26% 29.91 in 10.0 mi NW 8.1 mph - N/A   Clear
5:55 PM 78.4 °F 41.7 °F 27% 29.91 in 10.0 mi NW 5.8 mph - N/A   Clear
6:15 PM 77.9 °F 42.1 °F 28% 29.92 in 10.0 mi NW 4.6 mph - N/A   Clear
6:35 PM 77.2 °F 42.1 °F 29% 29.92 in 10.0 mi WNW 5.8 mph - N/A   Clear
6:55 PM 77.0 °F 41.0 °F 28% 29.93 in 10.0 mi NNW 5.8 mph - N/A   Clear
7:15 PM 75.2 °F 40.6 °F 29% 29.93 in 10.0 mi Calm Calm - N/A   Clear
7:35 PM 72.0 °F 43.3 °F 36% 29.93 in 10.0 mi Calm Calm - N/A   Clear
7:55 PM 70.5 °F 45.5 °F 41% 29.94 in 10.0 mi Calm Calm - N/A   Clear
8:35 PM 68.0 °F 45.5 °F 44% 29.97 in 10.0 mi Calm Calm - N/A   Clear
8:55 PM 67.3 °F 44.6 °F 44% 29.98 in 10.0 mi Calm Calm - N/A   Clear
9:15 PM 66.2 °F 43.9 °F 44% 29.99 in 10.0 mi Calm Calm - N/A   Clear
9:35 PM 66.2 °F 43.2 °F 43% 30.00 in 10.0 mi Calm Calm - N/A   Clear
9:55 PM 65.3 °F 41.2 °F 41% 30.01 in 10.0 mi Calm Calm - N/A   Clear
10:15 PM 64.4 °F 40.3 °F 41% 30.01 in 10.0 mi Calm Calm - N/A   Clear
10:35 PM 63.5 °F 39.7 °F 42% 30.02 in 10.0 mi Calm Calm - N/A   Clear
10:55 PM 63.0 °F 39.7 °F 42% 30.03 in 10.0 mi Calm Calm - N/A   Clear
11:15 PM 61.7 °F 40.3 °F 45% 30.03 in 10.0 mi Calm Calm - N/A   Clear
11:35 PM 61.9 °F 39.0 °F 43% 30.03 in 10.0 mi Calm Calm - N/A   Clear
11:55 PM 61.5 °F 37.6 °F 41% 30.04 in 10.0 mi Calm Calm - N/A   Clear